Flight Track Log - Related Links

Times and Time Zones

All times are in EDT time to prevent confusion due to time zone crossing. See the SWA279 flight status page for this flight to view local times or setup timezone preferences in your user account.

Time Position Orientation Groundspeed Altitude Reporting Facility
EDT Latitude Longitude Course Direction KTS MPH feet Rate Location/Type
Fri 03:51:59 PM 29.6664 -95.3069 291° West 148 170 2,000  Level Houston Center
Fri 03:52:33 PM 29.6858 -95.3319 312° West 177 204 2,800 2,438 Climbing Houston Center
Fri 03:53:35 PM 29.7269 -95.3906 309° West 224 258 5,900 3,194 Climbing Houston Center
Fri 03:54:37 PM 29.7592 -95.4550 300° West 232 267 9,400 2,613 Climbing Houston Center
Fri 03:55:39 PM 29.7786 -95.5378 285° West 269 310 11,300 1,968 Climbing Houston Center
Fri 03:56:42 PM 29.8031 -95.6408 285° West 327 376 13,500 2,880 Climbing Houston Center
Fri 03:57:00 PM 29.8731 -95.9026 291° West  Level FlightAware Approximate
Fri 03:57:44 PM 29.8325 -95.7689 285° West 342 394 17,300  Level Houston Center
Fri 03:58:46 PM 29.8569 -95.8833 284° West 367 422 19,300 2,177 Climbing Houston Center
Fri 03:59:48 PM 29.8872 -95.9956 287° West 369 425 21,800 2,226 Climbing Houston Center
Fri 04:00:50 PM 29.9164 -96.1231 285° West 383 441 23,900 1,984 Climbing Houston Center
Fri 04:01:52 PM 29.9442 -96.2439 285° West 391 450 25,900 2,129 Climbing Houston Center
Fri 04:02:54 PM 29.9722 -96.3633 285° West 390 449 28,300 2,177 Climbing Houston Center
Fri 04:03:56 PM 29.9975 -96.4764 285° West 372 428 30,400 2,016 Climbing Houston Center
Fri 04:04:59 PM 30.0272 -96.6111 284° West 364 419 32,500 1,872 Climbing Houston Center
Fri 04:06:01 PM 30.0528 -96.7192 285° West 352 405 34,300 1,645 Climbing Houston Center
Fri 04:07:03 PM 30.0761 -96.8256 284° West 345 397 35,900 823 Climbing Houston Center
Fri 04:08:05 PM 30.0989 -96.9286 284° West 336 387 36,000 48 Climbing Houston Center
Fri 04:09:07 PM 30.1256 -97.0478 285° West 339 390 36,000  Level Houston Center
Fri 04:10:09 PM 30.1492 -97.1536 284° West 337 388 36,000  Level Houston Center
Fri 04:11:11 PM 30.1736 -97.2625 285° West 343 395 36,000  Level Houston Center
Fri 04:12:13 PM 30.1978 -97.3694 285° West 341 392 36,000  Level Houston Center
Fri 04:13:15 PM 30.2214 -97.4789 284° West 347 399 36,000  Level Houston Center
Fri 04:14:18 PM 30.2450 -97.5878 284° West 346 398 36,000  Level Houston Center
Fri 04:15:20 PM 30.2731 -97.7161 284° West 348 400 36,000  Level Houston Center
Fri 04:16:22 PM 30.2958 -97.8264 283° West 349 402 36,000  Level Houston Center
Fri 04:17:24 PM 30.3203 -97.9394 284° West 349 402 36,000  Level Houston Center
Fri 04:18:27 PM 30.3425 -98.0453 284° West 346 398 36,000  Level Houston Center
Fri 04:19:28 PM 30.3661 -98.1544 284° West 346 398 36,000  Level Houston Center
Fri 04:20:30 PM 30.3892 -98.2647 284° West 347 399 36,000  Level Houston Center
Fri 04:21:32 PM 30.4128 -98.3761 284° West 351 404 36,000  Level Houston Center
Fri 04:22:34 PM 30.4403 -98.5056 284° West 351 404 36,000  Level Houston Center
Fri 04:23:37 PM 30.4631 -98.6175 283° West 354 407 36,000  Level Houston Center
Fri 04:24:39 PM 30.4861 -98.7306 283° West 357 411 36,000  Level Houston Center
Fri 04:25:41 PM 30.5103 -98.8439 284° West 360 414 36,000  Level Houston Center
Fri 04:26:43 PM 30.5353 -98.9586 284° West 363 418 36,000  Level Houston Center
Fri 04:27:45 PM 30.5583 -99.0733 283° West 363 418 36,000  Level Houston Center
Fri 04:28:47 PM 30.5825 -99.1914 283° West 363 418 36,000  Level Houston Center
Fri 04:29:49 PM 30.6061 -99.3053 284° West 364 419 36,000  Level Houston Center
Fri 04:30:51 PM 30.6300 -99.4206 284° West 368 423 36,000 435 Level Houston Center
Fri 04:31:53 PM 30.6569 -99.5583 283° West 367 422 36,900 912 Climbing Houston Center
Fri 04:32:56 PM 30.6803 -99.6717 283° West 364 419 37,900 528 Climbing Houston Center
Fri 04:33:58 PM 30.7028 -99.7856 283° West 364 419 38,000 48 Climbing Houston Center
Fri 04:35:00 PM 30.7250 -99.9003 283° West 366 421 38,000  Level Houston Center
Fri 04:36:02 PM 30.7472 -100.0147 283° West 366 421 38,000  Level Houston Center
Fri 04:37:04 PM 30.7744 -100.1531 283° West 367 422 38,000  Level Houston Center
Fri 04:38:06 PM 30.7978 -100.2697 283° West 371 427 38,000  Level Houston Center
Fri 04:39:08 PM 30.8206 -100.3864 283° West 373 429 38,000  Level Houston Center
Fri 04:40:10 PM 30.8431 -100.5053 282° West 376 433 38,000  Level Houston Center
Fri 04:41:13 PM 30.8644 -100.6208 282° West 370 426 38,000  Level Houston Center
Fri 04:42:15 PM 30.8908 -100.7622 282° West 374 430 38,000  Level Houston Center
Fri 04:43:17 PM 30.9131 -100.8797 282° West 374 430 38,000  Level Houston Center
Fri 04:44:19 PM 30.9364 -100.9956 283° West 371 427 38,000  Level Houston Center
Fri 04:45:21 PM 30.9581 -101.1131 282° West 372 428 38,000  Level Houston Center
Fri 04:46:23 PM 30.9794 -101.2292 282° West 369 425 38,000  Level Houston Center
Fri 04:47:25 PM 31.0058 -101.3697 282° West 369 425 38,000  Level Houston Center
Fri 04:48:27 PM 31.0275 -101.4872 282° West 371 427 38,000  Level Houston Center
Fri 04:49:29 PM 31.0503 -101.6056 283° West 373 429 38,000  Level Houston Center
Fri 04:50:39 PM 31.0761 -101.7511 282° West 377 434 38,000  Level Albuquerque Center
Fri 04:51:41 PM 31.0975 -101.8719 282° West 380 437 38,000  Level Albuquerque Center
Fri 04:52:43 PM 31.1194 -101.9944 282° West 384 442 38,000  Level Albuquerque Center
Fri 04:53:45 PM 31.1408 -102.1156 282° West 383 441 38,000  Level Albuquerque Center
Fri 04:54:47 PM 31.1633 -102.2369 282° West 383 441 38,000  Level Albuquerque Center
Fri 04:55:49 PM 31.1844 -102.3594 281° West 384 442 38,000  Level Albuquerque Center
Fri 04:56:51 PM 31.2103 -102.5072 282° West 386 444 38,000  Level Albuquerque Center
Fri 04:57:53 PM 31.2314 -102.6294 281° West 385 443 38,000  Level Albuquerque Center
Fri 04:58:55 PM 31.2542 -102.7533 282° West 388 447 38,000  Level Albuquerque Center
Fri 04:59:57 PM 31.2750 -102.8781 281° West 390 449 38,000  Level Albuquerque Center
Fri 05:00:59 PM 31.2978 -103.0028 282° West 392 451 38,000  Level Albuquerque Center
Fri 05:02:01 PM 31.3189 -103.1272 281° West 391 450 38,000  Level Albuquerque Center
Fri 05:03:03 PM 31.3444 -103.2753 281° West 387 445 38,000  Level Albuquerque Center
Fri 05:04:05 PM 31.3639 -103.3956 281° West 383 441 38,000  Level Albuquerque Center
Fri 05:05:07 PM 31.3819 -103.5061 281° West 380 437 38,000  Level Albuquerque Center
Fri 05:06:09 PM 31.4036 -103.6286 282° West 383 441 38,000  Level Albuquerque Center
Fri 05:07:11 PM 31.4281 -103.7744 281° West 382 440 38,000  Level Albuquerque Center
Fri 05:08:13 PM 31.4472 -103.8956 281° West 381 438 38,000  Level Albuquerque Center
Fri 05:09:15 PM 31.4678 -104.0178 281° West 382 440 38,000  Level Albuquerque Center
Fri 05:10:17 PM 31.4883 -104.1414 281° West 386 444 38,000  Level Albuquerque Center
Fri 05:11:19 PM 31.5083 -104.2636 281° West 386 444 38,000  Level Albuquerque Center
Fri 05:12:22 PM 31.5314 -104.4075 281° West 380 437 38,000  Level Albuquerque Center
Fri 05:13:24 PM 31.5500 -104.5272 280° West 377 434 38,000  Level Albuquerque Center
Fri 05:14:26 PM 31.5686 -104.6461 280° West 375 432 38,000  Level Albuquerque Center
Fri 05:15:28 PM 31.5867 -104.7642 280° West 373 429 38,000  Level Albuquerque Center
Fri 05:16:30 PM 31.6058 -104.8831 281° West 372 428 38,000  Level Albuquerque Center
Fri 05:17:32 PM 31.6275 -105.0242 280° West 370 426 38,000  Level Albuquerque Center
Fri 05:18:34 PM 31.6464 -105.1428 281° West 372 428 38,000  Level Albuquerque Center
Fri 05:19:36 PM 31.6633 -105.2625 279° West 374 430 38,000  Level Albuquerque Center
Fri 05:20:38 PM 31.6819 -105.3797 281° West 369 425 38,000  Level Albuquerque Center
Fri 05:21:40 PM 31.7017 -105.5006 281° West 376 433 38,000  Level Albuquerque Center
Fri 05:22:42 PM 31.7350 -105.6181 288° West 381 438 38,000  Level Albuquerque Center
Fri 05:23:44 PM 31.7733 -105.7614 287° West 385 443 38,000  Level Albuquerque Center
Fri 05:24:46 PM 31.8072 -105.8800 289° West 384 442 38,000  Level Albuquerque Center
Fri 05:25:48 PM 31.8386 -105.9994 287° West 384 442 38,000  Level Albuquerque Center
Fri 05:26:50 PM 31.8706 -106.1197 287° West 386 444 38,000  Level Albuquerque Center
Fri 05:27:54 PM 31.9044 -106.2397 288° West 387 445 38,000  Level Albuquerque Center
Fri 05:28:54 PM 31.9411 -106.3853 287° West 387 445 38,000  Level Albuquerque Center
Fri 05:29:56 PM 31.9733 -106.5044 288° West 382 440 38,000  Level Albuquerque Center
Fri 05:30:58 PM 32.0050 -106.6219 288° West 379 436 38,000  Level Albuquerque Center
Fri 05:32:01 PM 32.0369 -106.7411 288° West 380 437 38,000  Level Albuquerque Center
Fri 05:33:03 PM 32.0678 -106.8600 287° West 379 436 38,000  Level Albuquerque Center
Fri 05:34:05 PM 32.0994 -106.9794 287° West 380 437 38,000  Level Albuquerque Center
Fri 05:35:07 PM 32.1294 -107.0989 287° West 379 436 38,000  Level Albuquerque Center
Fri 05:36:09 PM 32.1664 -107.2425 287° West 379 436 38,000  Level Albuquerque Center
Fri 05:37:11 PM 32.1931 -107.3544 286° West 382 440 38,000  Level Albuquerque Center
Fri 05:38:13 PM 32.2217 -107.4747 286° West 385 443 38,000  Level Albuquerque Center
Fri 05:39:15 PM 32.2578 -107.6053 288° West 381 438 38,000  Level Albuquerque Center
Fri 05:40:17 PM 32.2872 -107.7278 286° West 385 443 38,000  Level Albuquerque Center
Fri 05:41:19 PM 32.3192 -107.8503 287° West 387 445 38,000  Level Albuquerque Center
Fri 05:42:21 PM 32.3494 -107.9733 286° West 389 448 38,000  Level Albuquerque Center
Fri 05:43:23 PM 32.3856 -108.1219 286° West 391 450 38,000  Level Albuquerque Center
Fri 05:44:25 PM 32.4172 -108.2467 287° West 394 453 38,000  Level Albuquerque Center
Fri 05:45:27 PM 32.4481 -108.3733 286° West 390 449 38,000  Level Albuquerque Center
Fri 05:46:29 PM 32.4792 -108.4969 287° West 393 452 38,000  Level Albuquerque Center
Fri 05:47:31 PM 32.5086 -108.6178 286° West 386 444 38,000  Level Albuquerque Center
Fri 05:48:33 PM 32.5383 -108.7428 286° West 392 451 38,000  Level Albuquerque Center
Fri 05:49:35 PM 32.5681 -108.8678 286° West 394 453 38,000  Level Albuquerque Center
Fri 05:50:37 PM 32.6050 -109.0203 286° West 399 459 38,000  Level Albuquerque Center
Fri 05:51:39 PM 32.6356 -109.1475 286° West 401 461 38,000  Level Albuquerque Center
Fri 05:52:41 PM 32.6656 -109.2753 286° West 401 461 38,000  Level Albuquerque Center
Fri 05:53:42 PM 32.6953 -109.4003 286° West 395 455 38,000  Level Albuquerque Center
Fri 05:54:44 PM 32.7242 -109.5222 286° West 387 445 38,000  Level Albuquerque Center
Fri 05:55:46 PM 32.7542 -109.6458 286° West 388 447 38,000  Level Albuquerque Center
Fri 05:56:48 PM 32.7889 -109.7939 286° West 389 448 38,000  Level Albuquerque Center
Fri 05:57:50 PM 32.8181 -109.9156 286° West 388 447 38,000  Level Albuquerque Center
Fri 05:58:52 PM 32.8461 -110.0361 286° West 386 444 38,000  Level Albuquerque Center
Fri 05:59:54 PM 32.8747 -110.1575 286° West 383 441 38,000  Level Albuquerque Center
Fri 06:00:56 PM 32.9025 -110.2789 285° West 384 442 38,000  Level Albuquerque Center
Fri 06:01:58 PM 32.9364 -110.4244 286° West 383 441 38,000  Level Albuquerque Center
Fri 06:03:00 PM 32.9628 -110.5436 285° West 378 435 38,000  Level Albuquerque Center
Fri 06:04:01 PM 32.9892 -110.6628 285° West 376 433 38,000  Level Albuquerque Center
Fri 06:05:03 PM 33.0181 -110.7886 285° West 374 430 38,000  Level Albuquerque Center
Fri 06:06:05 PM 33.0442 -110.9075 285° West 372 428 38,000  Level Albuquerque Center
Fri 06:07:07 PM 33.0703 -111.0244 285° West 367 422 38,000  Level Albuquerque Center
Fri 06:08:09 PM 33.0969 -111.1428 285° West 368 423 38,000  Level Albuquerque Center
Fri 06:09:11 PM 33.1228 -111.2603 285° West 366 421 38,000  Level Albuquerque Center
Fri 06:10:13 PM 33.1478 -111.3772 284° West 365 420 38,000  Level Albuquerque Center
Fri 06:11:15 PM 33.1789 -111.5183 285° West 365 420 38,000  Level Albuquerque Center
Fri 06:12:16 PM 33.2039 -111.6367 284° West 368 423 38,000  Level Albuquerque Center
Fri 06:13:18 PM 33.2303 -111.7564 285° West 371 427 38,000  Level Albuquerque Center
Fri 06:14:20 PM 33.2553 -111.8767 284° West 371 427 38,000  Level Albuquerque Center
Fri 06:15:22 PM 33.2811 -111.9975 284° West 374 430 38,000  Level Albuquerque Center
Fri 06:16:24 PM 33.3064 -112.1186 284° West 374 430 38,000  Level Albuquerque Center
Fri 06:17:26 PM 33.3322 -112.2403 284° West 375 432 38,000  Level Albuquerque Center
Fri 06:18:28 PM 33.3692 -112.3831 287° West 375 432 38,000  Level Albuquerque Center
Fri 06:19:30 PM 33.4072 -112.5000 291° West 375 432 38,000  Level Albuquerque Center
Fri 06:20:32 PM 33.4483 -112.6214 292° West 374 430 38,000  Level Albuquerque Center
Fri 06:21:34 PM 33.4861 -112.7375 291° West 374 430 38,000  Level Albuquerque Center
Fri 06:22:36 PM 33.5231 -112.8531 291° West 374 430 38,000  Level Albuquerque Center
Fri 06:23:38 PM 33.5611 -112.9692 291° West 375 432 38,000  Level Albuquerque Center
Fri 06:24:40 PM 33.5994 -113.0861 292° West 377 434 38,000  Level Albuquerque Center
Fri 06:25:41 PM 33.6447 -113.2244 291° West 380 437 38,000  Level Albuquerque Center
Fri 06:26:43 PM 33.6822 -113.3431 291° West 380 437 38,000  Level Albuquerque Center
Fri 06:27:45 PM 33.7194 -113.4619 291° West 380 437 38,000  Level Albuquerque Center
Fri 06:28:47 PM 33.7583 -113.5819 291° West 383 441 38,000  Level Albuquerque Center
Fri 06:29:49 PM 33.7956 -113.7025 290° West 384 442 38,000  Level Albuquerque Center
Fri 06:30:51 PM 33.8336 -113.8208 291° West 382 440 38,000  Level Albuquerque Center
Fri 06:31:53 PM 33.8794 -113.9639 291° West 382 440 38,000  Level Albuquerque Center
Fri 06:32:55 PM 33.8997 -114.0900 281° West 382 440 38,000  Level Albuquerque Center
Fri 06:33:57 PM 33.9144 -114.2164 278° West 383 441 38,000  Level Albuquerque Center
Fri 06:34:59 PM 33.9331 -114.3444 280° West 384 442 38,000  Level Albuquerque Center
Fri 06:35:26 PM 33.9425 -114.4072 280° West 385 443 38,000  Level Los Angeles Center
Fri 06:36:40 PM 33.9586 -114.5336 279° West 385 443 38,000  Level Los Angeles Center
Fri 06:37:43 PM 33.9778 -114.6856 279° West 384 442 38,000  Level Los Angeles Center
Fri 06:38:45 PM 33.9986 -114.8381 279° West 385 443 38,000  Level Los Angeles Center
Fri 06:39:47 PM 34.0139 -114.9644 278° West 382 440 38,000 -387 Level Los Angeles Center
Fri 06:40:49 PM 34.0306 -115.0914 279° West 384 442 37,200 -871 Descending Los Angeles Center
Fri 06:41:51 PM 34.0456 -115.2194 278° West 388 447 36,200 -1,392 Descending Los Angeles Center
Fri 06:42:54 PM 34.0614 -115.3511 278° West 397 457 34,300 -1,584 Descending Los Angeles Center
Fri 06:43:56 PM 34.0789 -115.4853 279° West 405 466 32,900 -1,306 Descending Los Angeles Center
Fri 06:44:58 PM 34.0992 -115.6525 278° West 420 483 31,600 -1,113 Descending Los Angeles Center
Fri 06:46:00 PM 34.1108 -115.7875 276° West 409 471 30,600 -968 Descending Los Angeles Center
Fri 06:47:02 PM 34.0903 -115.9208 259° West 409 471 29,600 -968 Descending Los Angeles Center
Fri 06:48:04 PM 34.0706 -116.0514 260° West 401 461 28,600 -1,016 Descending Los Angeles Center
Fri 06:49:06 PM 34.0514 -116.1831 260° West 400 460 27,500 -1,113 Descending Los Angeles Center
Fri 06:50:08 PM 34.0278 -116.3350 259° West 388 447 26,300 -1,065 Descending Los Angeles Center
Fri 06:51:10 PM 34.0089 -116.4606 260° West 384 442 25,300 -968 Descending Los Angeles Center
Fri 06:52:12 PM 33.9975 -116.5844 264° West 377 434 24,300 -816 Descending Los Angeles Center
Fri 06:53:15 PM 33.9869 -116.7086 264° West 375 432 23,600 -1,248 Descending Los Angeles Center
Fri 06:54:17 PM 33.9775 -116.8297 265° West 367 422 21,700 -2,129 Descending Los Angeles Center
Fri 06:55:19 PM 33.9658 -116.9694 264° West 354 407 19,200 -2,244 Descending Los Angeles Center
Fri 06:56:20 PM 33.9500 -117.1000 262° West 369 425 17,100 -1,721 Descending Southern California TRACON
Fri 06:57:21 PM 33.9500 -117.2167 270° West 363 418 15,700 -1,537 Descending Southern California TRACON
Fri 06:58:21 PM 33.9333 -117.3333 260° West 357 411 14,000 -1,850 Descending Southern California TRACON
Fri 06:59:21 PM 33.9667 -117.4500 289° West 346 398 12,000 -1,550 Descending Southern California TRACON
Fri 07:00:21 PM 34.0000 -117.5500 292° West 342 394 10,900 -950 Descending Southern California TRACON
Fri 07:01:21 PM 34.0167 -117.6500 281° West 326 375 10,100 -450 Descending Southern California TRACON
Fri 07:02:21 PM 34.0000 -117.7667 260° West 306 352 10,000 -800 Descending Southern California TRACON
Fri 07:03:21 PM 34.0000 -117.8500 270° West 288 331 8,500 -1,513 Descending Southern California TRACON
Fri 07:04:16 PM 33.9833 -117.9500 259° West 289 333 7,100 -1,190 Descending Southern California TRACON
Fri 07:05:22 PM 33.9833 -118.0333 270° West 259 298 6,100 -1,333 Descending Southern California TRACON
Fri 07:06:22 PM 33.9833 -118.1167 270° West 240 276 4,300 -1,650 Descending Southern California TRACON
Fri 07:06:42 PM 33.9789 -118.1383 256° West 242 278 3,900 -1,024 Descending Los Angeles Center
Fri 07:07:44 PM 33.9717 -118.2075 263° West 218 251 2,900 -871 Descending Los Angeles Center
Fri 07:08:46 PM 33.9656 -118.2767 264° West 192 221 2,100 -726 Descending Los Angeles Center
Fri 07:09:48 PM 33.9611 -118.3244 264° West 165 190 1,400 -677 Descending Los Angeles Center
Fri 07:10:50 PM 33.9569 -118.3658 263° West 143 165 700 -624 Descending Los Angeles Center
Fri 07:11:53 PM 33.9522 -118.4067 262° West 131 151 100 -571 Descending Los Angeles Center
Fri 07:13:00 PM 33.9425 -118.4081 270° West  Level Estimated
Fri 07:20:00 PM 33.9425 -118.4081 270° West  Level Estimated

Login

Don't have an account? Register now (free) for customized features, flight alerts, and more!